Year,Month,Day,Hour,Minute,Value (Times are PST for temperature in C)
2019,07,20,00,00,14.80
2019,07,20,00,01,14.80
2019,07,20,00,02,14.80
2019,07,20,00,03,14.80
2019,07,20,00,04,14.80
2019,07,20,00,05,14.60
2019,07,20,00,06,14.40
2019,07,20,00,07,14.40
2019,07,20,00,08,14.30
2019,07,20,00,09,14.30
2019,07,20,00,10,14.30
2019,07,20,00,11,14.30
2019,07,20,00,12,14.30
2019,07,20,00,13,14.30
2019,07,20,00,14,14.30
2019,07,20,00,15,14.30
2019,07,20,00,16,14.30
2019,07,20,00,17,14.30
2019,07,20,00,18,14.30
2019,07,20,00,19,14.30
2019,07,20,00,20,14.30
2019,07,20,00,21,14.30
2019,07,20,00,22,14.30
2019,07,20,00,23,14.30
2019,07,20,00,24,14.30
2019,07,20,00,25,14.30
2019,07,20,00,26,14.20
2019,07,20,00,27,14.20
2019,07,20,00,28,14.20
2019,07,20,00,29,14.20
2019,07,20,00,30,14.20
2019,07,20,00,31,14.20
2019,07,20,00,32,14.20
2019,07,20,00,33,14.20
2019,07,20,00,34,14.10
2019,07,20,00,35,14.10
2019,07,20,00,36,14.10
2019,07,20,00,37,14.10
2019,07,20,00,38,14.10
2019,07,20,00,39,14.00
2019,07,20,00,40,14.00
2019,07,20,00,41,14.00
2019,07,20,00,42,14.00
2019,07,20,00,43,13.90
2019,07,20,00,44,13.90
2019,07,20,00,45,13.90
2019,07,20,00,46,13.90
2019,07,20,00,47,13.90
2019,07,20,00,48,13.90
2019,07,20,00,49,13.90
2019,07,20,00,50,13.90
2019,07,20,00,51,13.90
2019,07,20,00,52,13.80
2019,07,20,00,53,13.80
2019,07,20,00,54,13.80
2019,07,20,00,55,13.80
2019,07,20,00,56,13.80
2019,07,20,00,57,13.80
2019,07,20,00,58,13.80
2019,07,20,00,59,13.80
2019,07,20,01,00,13.80
2019,07,20,01,01,13.70
2019,07,20,01,02,13.70
2019,07,20,01,03,13.70
2019,07,20,01,04,13.70
2019,07,20,01,05,13.70
2019,07,20,01,06,13.70
2019,07,20,01,07,13.70
2019,07,20,01,08,13.70
2019,07,20,01,09,13.70
2019,07,20,01,10,13.70
2019,07,20,01,11,13.70
2019,07,20,01,12,13.60
2019,07,20,01,13,13.60
2019,07,20,01,14,13.60
2019,07,20,01,15,13.60
2019,07,20,01,16,13.60
2019,07,20,01,17,13.50
2019,07,20,01,18,13.50
2019,07,20,01,19,13.50
2019,07,20,01,20,13.40
2019,07,20,01,21,13.40
2019,07,20,01,22,13.40
2019,07,20,01,23,13.30
2019,07,20,01,24,13.30
2019,07,20,01,25,13.30
2019,07,20,01,26,13.30
2019,07,20,01,27,13.30
2019,07,20,01,28,13.30
2019,07,20,01,29,13.30
2019,07,20,01,30,13.30
2019,07,20,01,31,13.30
2019,07,20,01,32,13.30
2019,07,20,01,33,13.30
2019,07,20,01,34,13.30
2019,07,20,01,35,13.30
2019,07,20,01,36,13.30
2019,07,20,01,37,13.30
2019,07,20,01,38,13.30
2019,07,20,01,39,13.30
2019,07,20,01,40,13.30
2019,07,20,01,41,13.30
2019,07,20,01,42,13.30
2019,07,20,01,43,13.40
2019,07,20,01,44,13.40
2019,07,20,01,45,13.40
2019,07,20,01,46,13.40
2019,07,20,01,47,13.40
2019,07,20,01,48,13.40
2019,07,20,01,49,13.40
2019,07,20,01,50,13.30
2019,07,20,01,51,13.30
2019,07,20,01,52,13.30
2019,07,20,01,53,13.30
2019,07,20,01,54,13.30
2019,07,20,01,55,13.30
2019,07,20,01,56,13.30
2019,07,20,01,57,13.30
2019,07,20,01,58,13.20
2019,07,20,01,59,13.20
2019,07,20,02,00,13.20
2019,07,20,02,01,13.20
2019,07,20,02,02,13.20
2019,07,20,02,03,13.20
2019,07,20,02,04,13.10
2019,07,20,02,05,13.10
2019,07,20,02,06,13.10
2019,07,20,02,07,13.10
2019,07,20,02,08,13.10
2019,07,20,02,09,13.10
2019,07,20,02,10,13.00
2019,07,20,02,11,13.00
2019,07,20,02,12,13.00
2019,07,20,02,13,12.90
2019,07,20,02,14,12.90
2019,07,20,02,15,12.90
2019,07,20,02,16,12.80
2019,07,20,02,17,12.80
2019,07,20,02,18,12.80
2019,07,20,02,19,12.70
2019,07,20,02,20,12.70
2019,07,20,02,21,12.70
2019,07,20,02,22,12.60
2019,07,20,02,23,12.60
2019,07,20,02,24,12.60
2019,07,20,02,25,12.60
2019,07,20,02,26,12.60
2019,07,20,02,27,12.50
2019,07,20,02,28,12.50
2019,07,20,02,29,12.50
2019,07,20,02,30,12.40
2019,07,20,02,31,12.40
2019,07,20,02,32,12.40
2019,07,20,02,33,12.30
2019,07,20,02,34,12.30
2019,07,20,02,35,12.30
2019,07,20,02,36,12.30
2019,07,20,02,37,12.30
2019,07,20,02,38,12.30
2019,07,20,02,39,12.30
2019,07,20,02,40,12.20
2019,07,20,02,41,12.20
2019,07,20,02,42,12.20
2019,07,20,02,43,12.20
2019,07,20,02,44,12.20
2019,07,20,02,45,12.20
2019,07,20,02,46,12.20
2019,07,20,02,47,12.20
2019,07,20,02,48,12.10
2019,07,20,02,49,12.10
2019,07,20,02,50,12.10
2019,07,20,02,51,12.10
2019,07,20,02,52,12.10
2019,07,20,02,53,12.00
2019,07,20,02,54,12.00
2019,07,20,02,55,12.00
2019,07,20,02,56,12.00
2019,07,20,02,57,11.90
2019,07,20,02,58,11.90
2019,07,20,02,59,11.90
2019,07,20,03,00,11.90
2019,07,20,03,01,11.90
2019,07,20,03,02,11.90
2019,07,20,03,03,11.80
2019,07,20,03,04,11.80
2019,07,20,03,05,11.80
2019,07,20,03,06,11.80
2019,07,20,03,07,11.80
2019,07,20,03,08,11.80
2019,07,20,03,09,11.80
2019,07,20,03,10,11.80
2019,07,20,03,11,11.80
2019,07,20,03,12,11.70
2019,07,20,03,13,11.70
2019,07,20,03,14,11.70
2019,07,20,03,15,11.70
2019,07,20,03,16,11.70
2019,07,20,03,17,11.70
2019,07,20,03,18,11.70
2019,07,20,03,19,11.70
2019,07,20,03,20,11.70
2019,07,20,03,21,11.60
2019,07,20,03,22,11.60
2019,07,20,03,23,11.60
2019,07,20,03,24,11.60
2019,07,20,03,25,11.60
2019,07,20,03,26,11.60
2019,07,20,03,27,11.60
2019,07,20,03,28,11.60
2019,07,20,03,29,11.60
2019,07,20,03,30,11.50
2019,07,20,03,31,11.50
2019,07,20,03,32,11.50
2019,07,20,03,33,11.60
2019,07,20,03,34,11.50
2019,07,20,03,35,11.50
2019,07,20,03,36,11.50
2019,07,20,03,37,11.50
2019,07,20,03,38,11.40
2019,07,20,03,39,11.40
2019,07,20,03,40,11.40
2019,07,20,03,41,11.40
2019,07,20,03,42,11.40
2019,07,20,03,43,11.30
2019,07,20,03,44,11.30
2019,07,20,03,45,11.30
2019,07,20,03,46,11.30
2019,07,20,03,47,11.30
2019,07,20,03,48,11.30
2019,07,20,03,49,11.30
2019,07,20,03,50,11.20
2019,07,20,03,51,11.20
2019,07,20,03,52,11.20
2019,07,20,03,53,11.20
2019,07,20,03,54,11.20
2019,07,20,03,55,11.20
2019,07,20,03,56,11.20
2019,07,20,03,57,11.20
2019,07,20,03,58,11.20
2019,07,20,03,59,11.20
2019,07,20,04,00,11.10
2019,07,20,04,01,11.10
2019,07,20,04,02,11.10
2019,07,20,04,03,11.10
2019,07,20,04,04,11.10
2019,07,20,04,05,11.10
2019,07,20,04,06,11.10
2019,07,20,04,07,11.10
2019,07,20,04,08,11.00
2019,07,20,04,09,11.00
2019,07,20,04,10,11.00
2019,07,20,04,11,11.00
2019,07,20,04,12,10.90
2019,07,20,04,13,10.90
2019,07,20,04,14,10.90
2019,07,20,04,15,10.90
2019,07,20,04,16,10.90
2019,07,20,04,17,10.80
2019,07,20,04,18,10.80
2019,07,20,04,19,10.80
2019,07,20,04,20,10.80
2019,07,20,04,21,10.80
2019,07,20,04,22,10.80
2019,07,20,04,23,10.80
2019,07,20,04,24,10.70
2019,07,20,04,25,10.70
2019,07,20,04,26,10.70
2019,07,20,04,27,10.70
2019,07,20,04,28,10.70
2019,07,20,04,29,10.70
2019,07,20,04,30,10.70
2019,07,20,04,31,10.70
2019,07,20,04,32,10.70
2019,07,20,04,33,10.70
2019,07,20,04,34,10.70
2019,07,20,04,35,10.60
2019,07,20,04,36,10.60
2019,07,20,04,37,10.60
2019,07,20,04,38,10.60
2019,07,20,04,39,10.60
2019,07,20,04,40,10.60
2019,07,20,04,41,10.60
2019,07,20,04,42,10.60
2019,07,20,04,43,10.60
2019,07,20,04,44,10.60
2019,07,20,04,45,10.60
2019,07,20,04,46,10.60
2019,07,20,04,47,10.60
2019,07,20,04,48,10.50
2019,07,20,04,49,10.50
2019,07,20,04,50,10.50
2019,07,20,04,51,10.50
2019,07,20,04,52,10.50
2019,07,20,04,53,10.50
2019,07,20,04,54,10.50
2019,07,20,04,55,10.50
2019,07,20,04,56,10.50
2019,07,20,04,57,10.40
2019,07,20,04,58,10.40
2019,07,20,04,59,10.40
2019,07,20,05,00,10.40
2019,07,20,05,01,10.40
2019,07,20,05,02,10.40
2019,07,20,05,03,10.40
2019,07,20,05,04,10.40
2019,07,20,05,05,10.30
2019,07,20,05,06,10.30
2019,07,20,05,07,10.30
2019,07,20,05,08,10.30
2019,07,20,05,09,10.30
2019,07,20,05,10,10.30
2019,07,20,05,11,10.30
2019,07,20,05,12,10.30
2019,07,20,05,13,10.30
2019,07,20,05,14,10.30
2019,07,20,05,15,10.30
2019,07,20,05,16,10.30
2019,07,20,05,17,10.20
2019,07,20,05,18,10.20
2019,07,20,05,19,10.20
2019,07,20,05,20,10.20
2019,07,20,05,21,10.20
2019,07,20,05,22,10.20
2019,07,20,05,23,10.20
2019,07,20,05,24,10.20
2019,07,20,05,25,10.10
2019,07,20,05,26,10.10
2019,07,20,05,27,10.10
2019,07,20,05,28,10.10
2019,07,20,05,29,10.10
2019,07,20,05,30,10.00
2019,07,20,05,31,10.00
2019,07,20,05,32,10.00
2019,07,20,05,33,9.90
2019,07,20,05,34,9.90
2019,07,20,05,35,9.90
2019,07,20,05,36,9.90
2019,07,20,05,37,9.90
2019,07,20,05,38,9.90
2019,07,20,05,39,9.90
2019,07,20,05,40,9.90
2019,07,20,05,41,9.90
2019,07,20,05,42,9.80
2019,07,20,05,43,9.80
2019,07,20,05,44,9.80
2019,07,20,05,45,9.80
2019,07,20,05,46,9.80
2019,07,20,05,47,9.80
2019,07,20,05,48,9.80
2019,07,20,05,49,9.80
2019,07,20,05,50,9.80
2019,07,20,05,51,9.80
2019,07,20,05,52,9.80
2019,07,20,05,53,9.80
2019,07,20,05,54,9.80
2019,07,20,05,55,9.80
2019,07,20,05,56,9.80
2019,07,20,05,57,9.80
2019,07,20,05,58,9.70
2019,07,20,05,59,9.70
2019,07,20,06,00,9.70
2019,07,20,06,01,9.70
2019,07,20,06,02,9.70
2019,07,20,06,03,9.70
2019,07,20,06,04,9.70
2019,07,20,06,05,9.70
2019,07,20,06,06,9.70
2019,07,20,06,07,9.70
2019,07,20,06,08,9.70
2019,07,20,06,09,9.70
2019,07,20,06,10,9.70
2019,07,20,06,11,9.80
2019,07,20,06,12,9.80
2019,07,20,06,13,9.80
2019,07,20,06,14,9.80
2019,07,20,06,15,9.80
2019,07,20,06,16,9.80
2019,07,20,06,17,9.80
2019,07,20,06,18,9.80
2019,07,20,06,19,9.90
2019,07,20,06,20,9.90
2019,07,20,06,21,9.90
2019,07,20,06,22,9.90
2019,07,20,06,23,9.90
2019,07,20,06,24,9.80
2019,07,20,06,25,9.80
2019,07,20,06,26,9.90
2019,07,20,06,27,9.90
2019,07,20,06,28,9.90
2019,07,20,06,29,9.90
2019,07,20,06,30,9.90
2019,07,20,06,31,9.90
2019,07,20,06,32,9.90
2019,07,20,06,33,9.90
2019,07,20,06,34,9.90
2019,07,20,06,35,9.90
2019,07,20,06,36,9.90
2019,07,20,06,37,9.90
2019,07,20,06,38,9.90
2019,07,20,06,39,9.90
2019,07,20,06,40,9.90
2019,07,20,06,41,9.90
2019,07,20,06,42,10.00
2019,07,20,06,43,10.00
2019,07,20,06,44,10.10
2019,07,20,06,45,10.10
2019,07,20,06,46,10.10
2019,07,20,06,47,10.20
2019,07,20,06,48,10.20
2019,07,20,06,49,10.20
2019,07,20,06,50,10.30
2019,07,20,06,51,10.30
2019,07,20,06,52,10.40
2019,07,20,06,53,10.50
2019,07,20,06,54,10.50
2019,07,20,06,55,10.60
2019,07,20,06,56,10.70
2019,07,20,06,57,10.70
2019,07,20,06,58,10.80
2019,07,20,06,59,10.90
2019,07,20,07,00,10.90
2019,07,20,07,01,11.00
2019,07,20,07,02,11.00
2019,07,20,07,03,11.10
2019,07,20,07,04,11.20
2019,07,20,07,05,11.30
2019,07,20,07,06,11.30
2019,07,20,07,07,11.40
2019,07,20,07,08,11.40
2019,07,20,07,09,11.40
2019,07,20,07,10,11.50
2019,07,20,07,11,11.50
2019,07,20,07,12,11.60
2019,07,20,07,13,11.60
2019,07,20,07,14,11.60
2019,07,20,07,15,11.60
2019,07,20,07,16,11.70
2019,07,20,07,17,11.70
2019,07,20,07,18,11.70
2019,07,20,07,19,11.80
2019,07,20,07,20,11.80
2019,07,20,07,21,11.80
2019,07,20,07,22,11.90
2019,07,20,07,23,11.90
2019,07,20,07,24,11.90
2019,07,20,07,25,12.00
2019,07,20,07,26,12.00
2019,07,20,07,27,12.10
2019,07,20,07,28,12.10
2019,07,20,07,29,12.20
2019,07,20,07,30,12.20
2019,07,20,07,31,12.30
2019,07,20,07,32,12.40
2019,07,20,07,33,12.40
2019,07,20,07,34,12.50
2019,07,20,07,35,12.50
2019,07,20,07,36,12.60
2019,07,20,07,37,12.60
2019,07,20,07,38,12.70
2019,07,20,07,39,12.70
2019,07,20,07,40,12.80
2019,07,20,07,41,12.80
2019,07,20,07,42,12.80
2019,07,20,07,43,12.90
2019,07,20,07,44,13.00
2019,07,20,07,45,13.00
2019,07,20,07,46,13.10
2019,07,20,07,47,13.20
2019,07,20,07,48,13.20
2019,07,20,07,49,13.30
2019,07,20,07,50,13.30
2019,07,20,07,51,13.40
2019,07,20,07,52,13.50
2019,07,20,07,53,13.50
2019,07,20,07,54,13.60
2019,07,20,07,55,13.70
2019,07,20,07,56,13.70
2019,07,20,07,57,13.70
2019,07,20,07,58,13.80
2019,07,20,07,59,13.80
2019,07,20,08,00,13.90
2019,07,20,08,01,13.90
2019,07,20,08,02,14.00
2019,07,20,08,03,14.00
2019,07,20,08,04,14.00
2019,07,20,08,05,14.10
2019,07,20,08,06,14.10
2019,07,20,08,07,14.10
2019,07,20,08,08,14.10
2019,07,20,08,09,14.20
2019,07,20,08,10,14.20
2019,07,20,08,11,14.20
2019,07,20,08,12,14.30
2019,07,20,08,13,14.30
2019,07,20,08,14,14.30
2019,07,20,08,15,14.30
2019,07,20,08,16,14.40
2019,07,20,08,17,14.40
2019,07,20,08,18,14.50
2019,07,20,08,19,14.50
2019,07,20,08,20,14.60
2019,07,20,08,21,14.70
2019,07,20,08,22,14.70
2019,07,20,08,23,14.70
2019,07,20,08,24,14.80
2019,07,20,08,25,14.80
2019,07,20,08,26,14.80
2019,07,20,08,27,14.90
2019,07,20,08,28,14.90
2019,07,20,08,29,14.90
2019,07,20,08,30,15.00
2019,07,20,08,31,15.10
2019,07,20,08,32,15.20
2019,07,20,08,33,15.20
2019,07,20,08,34,15.20
2019,07,20,08,35,15.20
2019,07,20,08,36,15.20
2019,07,20,08,37,15.20
2019,07,20,08,38,15.20
2019,07,20,08,39,15.20
2019,07,20,08,40,15.20
2019,07,20,08,41,15.20
2019,07,20,08,42,15.20
2019,07,20,08,43,15.20
2019,07,20,08,44,15.30
2019,07,20,08,45,15.30
2019,07,20,08,46,15.30
2019,07,20,08,47,15.30
2019,07,20,08,48,15.40
2019,07,20,08,49,15.40
2019,07,20,08,50,15.50
2019,07,20,08,51,15.50
2019,07,20,08,52,15.50
2019,07,20,08,53,15.50
2019,07,20,08,54,15.50
2019,07,20,08,55,15.60
2019,07,20,08,56,15.60
2019,07,20,08,57,15.60
2019,07,20,08,58,15.70
2019,07,20,08,59,15.70
2019,07,20,09,00,15.70
2019,07,20,09,01,15.70
2019,07,20,09,02,15.80
2019,07,20,09,03,15.80
2019,07,20,09,04,15.80
2019,07,20,09,05,15.90
2019,07,20,09,06,15.90
2019,07,20,09,07,16.00
2019,07,20,09,08,16.10
2019,07,20,09,09,16.20
2019,07,20,09,10,16.30
2019,07,20,09,11,16.30
2019,07,20,09,12,16.40
2019,07,20,09,13,16.50
2019,07,20,09,14,16.60
2019,07,20,09,15,16.60
2019,07,20,09,16,16.60
2019,07,20,09,17,16.70
2019,07,20,09,18,16.70
2019,07,20,09,19,16.70
2019,07,20,09,20,16.70
2019,07,20,09,21,16.80
2019,07,20,09,22,16.80
2019,07,20,09,23,16.80
2019,07,20,09,24,16.80
2019,07,20,09,25,16.80
2019,07,20,09,26,16.80
2019,07,20,09,27,16.80
2019,07,20,09,28,16.80
2019,07,20,09,29,16.80
2019,07,20,09,30,16.80
2019,07,20,09,31,16.80
2019,07,20,09,32,16.90
2019,07,20,09,33,16.90
2019,07,20,09,34,17.00
2019,07,20,09,35,17.00
2019,07,20,09,36,17.10
2019,07,20,09,37,17.10
2019,07,20,09,38,17.10
2019,07,20,09,39,17.10
2019,07,20,09,40,17.10
2019,07,20,09,41,17.20
2019,07,20,09,42,17.20
2019,07,20,09,43,17.20
2019,07,20,09,44,17.20
2019,07,20,09,45,17.30
2019,07,20,09,46,17.30
2019,07,20,09,47,17.30
2019,07,20,09,48,17.30
2019,07,20,09,49,17.30
2019,07,20,09,50,17.30
2019,07,20,09,51,17.30
2019,07,20,09,52,17.30
2019,07,20,09,53,17.40
2019,07,20,09,54,17.40
2019,07,20,09,55,17.40
2019,07,20,09,56,17.50
2019,07,20,09,57,17.60
2019,07,20,09,58,17.60
2019,07,20,09,59,17.70
2019,07,20,10,00,17.80
2019,07,20,10,01,17.90
2019,07,20,10,02,17.90
2019,07,20,10,03,17.90
2019,07,20,10,04,18.00
2019,07,20,10,05,18.00
2019,07,20,10,06,17.90
2019,07,20,10,07,18.00
2019,07,20,10,08,18.00
2019,07,20,10,09,17.90
2019,07,20,10,10,17.90
2019,07,20,10,11,17.90
2019,07,20,10,12,18.00
2019,07,20,10,13,18.00
2019,07,20,10,14,18.00
2019,07,20,10,15,18.10
2019,07,20,10,16,18.10
2019,07,20,10,17,18.20
2019,07,20,10,18,18.30
2019,07,20,10,19,18.40
2019,07,20,10,20,18.40
2019,07,20,10,21,18.50
2019,07,20,10,22,18.50
2019,07,20,10,23,18.50
2019,07,20,10,24,18.60
2019,07,20,10,25,18.60
2019,07,20,10,26,18.60
2019,07,20,10,27,18.70
2019,07,20,10,28,18.70
2019,07,20,10,29,18.70
2019,07,20,10,30,18.70
2019,07,20,10,31,18.70
2019,07,20,10,32,18.70
2019,07,20,10,33,18.80
2019,07,20,10,34,18.80
2019,07,20,10,35,18.90
2019,07,20,10,36,18.90
2019,07,20,10,37,18.90
2019,07,20,10,38,18.90
2019,07,20,10,39,18.90
2019,07,20,10,40,19.00
2019,07,20,10,41,19.00
2019,07,20,10,42,19.10
2019,07,20,10,43,19.10
2019,07,20,10,44,19.20
2019,07,20,10,45,19.20
2019,07,20,10,46,19.20
2019,07,20,10,47,19.20
2019,07,20,10,48,19.20
2019,07,20,10,49,19.20
2019,07,20,10,50,19.20
2019,07,20,10,51,19.30
2019,07,20,10,52,19.30
2019,07,20,10,53,19.30
2019,07,20,10,54,19.30
2019,07,20,10,55,19.30
2019,07,20,10,56,19.30
2019,07,20,10,57,19.30
2019,07,20,10,58,19.40
2019,07,20,10,59,19.40
2019,07,20,11,00,19.50
2019,07,20,11,01,19.60
2019,07,20,11,02,19.70
2019,07,20,11,03,19.80
2019,07,20,11,04,19.90
2019,07,20,11,05,19.90
2019,07,20,11,06,19.80
2019,07,20,11,07,19.80
2019,07,20,11,08,19.80
2019,07,20,11,09,19.80
2019,07,20,11,10,19.80
2019,07,20,11,11,19.80
2019,07,20,11,12,19.80
2019,07,20,11,13,19.80
2019,07,20,11,14,19.80
2019,07,20,11,15,19.80
2019,07,20,11,16,19.90
2019,07,20,11,17,20.00
2019,07,20,11,18,20.00
2019,07,20,11,19,20.00
2019,07,20,11,20,20.00
2019,07,20,11,21,20.00
2019,07,20,11,22,20.00
2019,07,20,11,23,20.10
2019,07,20,11,24,20.20
2019,07,20,11,25,20.20
2019,07,20,11,26,20.20
2019,07,20,11,27,20.10
2019,07,20,11,28,20.10
2019,07,20,11,29,20.10
2019,07,20,11,30,20.20
2019,07,20,11,31,20.20
2019,07,20,11,32,20.20
2019,07,20,11,33,20.30
2019,07,20,11,34,20.30
2019,07,20,11,35,20.30
2019,07,20,11,36,20.40
2019,07,20,11,37,20.40
2019,07,20,11,38,20.40
2019,07,20,11,39,20.50
2019,07,20,11,40,20.60
2019,07,20,11,41,20.70
2019,07,20,11,42,20.80
2019,07,20,11,43,20.80
2019,07,20,11,44,20.90
2019,07,20,11,45,21.00
2019,07,20,11,46,21.00
2019,07,20,11,47,21.00
2019,07,20,11,48,21.10
2019,07,20,11,49,21.10
2019,07,20,11,50,21.00
2019,07,20,11,51,21.10
2019,07,20,11,52,21.10
2019,07,20,11,53,21.20
2019,07,20,11,54,21.20
2019,07,20,11,55,21.20
2019,07,20,11,56,21.20
2019,07,20,11,57,21.20
2019,07,20,11,58,21.20
2019,07,20,11,59,21.30
2019,07,20,12,00,21.30
2019,07,20,12,01,21.40
2019,07,20,12,02,21.40
2019,07,20,12,03,21.50
2019,07,20,12,04,21.50
2019,07,20,12,05,21.50
2019,07,20,12,06,21.50
2019,07,20,12,07,21.50
2019,07,20,12,08,21.50
2019,07,20,12,09,21.50
2019,07,20,12,10,21.60
2019,07,20,12,11,21.60
2019,07,20,12,12,21.70
2019,07,20,12,13,21.80
2019,07,20,12,14,21.80
2019,07,20,12,15,21.80
2019,07,20,12,16,21.80
2019,07,20,12,17,21.80
2019,07,20,12,18,21.80
2019,07,20,12,19,21.70
2019,07,20,12,20,21.70
2019,07,20,12,21,21.70
2019,07,20,12,22,21.70
2019,07,20,12,23,21.70
2019,07,20,12,24,21.70
2019,07,20,12,25,21.60
2019,07,20,12,26,21.60
2019,07,20,12,27,21.60
2019,07,20,12,28,21.60
2019,07,20,12,29,21.60
2019,07,20,12,30,21.50
2019,07,20,12,31,21.50
2019,07,20,12,32,21.50
2019,07,20,12,33,21.60
2019,07,20,12,34,21.60
2019,07,20,12,35,21.70
2019,07,20,12,36,21.80
2019,07,20,12,37,21.90
2019,07,20,12,38,22.00
2019,07,20,12,39,22.10
2019,07,20,12,40,22.20
2019,07,20,12,41,22.20
2019,07,20,12,42,22.30
2019,07,20,12,43,22.30
2019,07,20,12,44,22.40
2019,07,20,12,45,22.40
2019,07,20,12,46,22.40
2019,07,20,12,47,22.40
2019,07,20,12,48,22.40
2019,07,20,12,49,22.40
2019,07,20,12,50,22.40
2019,07,20,12,51,22.50
2019,07,20,12,52,22.50
2019,07,20,12,53,22.50
2019,07,20,12,54,22.50
2019,07,20,12,55,22.40
2019,07,20,12,56,22.30
2019,07,20,12,57,22.20
2019,07,20,12,58,22.20
2019,07,20,12,59,22.10
2019,07,20,13,00,22.00
2019,07,20,13,01,22.00
2019,07,20,13,02,21.90
2019,07,20,13,03,21.90
2019,07,20,13,04,21.90
2019,07,20,13,05,21.90
2019,07,20,13,06,21.90
2019,07,20,13,07,21.80
2019,07,20,13,08,21.80
2019,07,20,13,09,21.80
2019,07,20,13,10,21.80
2019,07,20,13,11,21.80
2019,07,20,13,12,21.90
2019,07,20,13,13,21.90
2019,07,20,13,14,22.00
2019,07,20,13,15,22.00
2019,07,20,13,16,22.10
2019,07,20,13,17,22.10
2019,07,20,13,18,22.10
2019,07,20,13,19,22.20
2019,07,20,13,20,22.20
2019,07,20,13,21,22.30
2019,07,20,13,22,22.30
2019,07,20,13,23,22.30
2019,07,20,13,24,22.40
2019,07,20,13,25,22.40
2019,07,20,13,26,22.40
2019,07,20,13,27,22.40
2019,07,20,13,28,22.40
2019,07,20,13,29,22.40
2019,07,20,13,30,22.40
2019,07,20,13,31,22.30
2019,07,20,13,32,22.30
2019,07,20,13,33,22.30
2019,07,20,13,34,22.30
2019,07,20,13,35,22.40
2019,07,20,13,36,22.50
2019,07,20,13,37,22.50
2019,07,20,13,38,22.50
2019,07,20,13,39,22.40
2019,07,20,13,40,22.40
2019,07,20,13,41,22.40
2019,07,20,13,42,22.40
2019,07,20,13,43,22.30
2019,07,20,13,44,22.40
2019,07,20,13,45,22.40
2019,07,20,13,46,22.50
2019,07,20,13,47,22.50
2019,07,20,13,48,22.60
2019,07,20,13,49,22.70
2019,07,20,13,50,22.70
2019,07,20,13,51,22.70
2019,07,20,13,52,22.70
2019,07,20,13,53,22.70
2019,07,20,13,54,22.70
2019,07,20,13,55,22.70
2019,07,20,13,56,22.70
2019,07,20,13,57,22.70
2019,07,20,13,58,22.70
2019,07,20,13,59,22.70
2019,07,20,14,00,22.70
2019,07,20,14,01,22.60
2019,07,20,14,02,22.60
2019,07,20,14,03,22.50
2019,07,20,14,04,22.50
2019,07,20,14,05,22.50
2019,07,20,14,06,22.50
2019,07,20,14,07,22.50
2019,07,20,14,08,22.50
2019,07,20,14,09,22.50
2019,07,20,14,10,22.50
2019,07,20,14,11,22.50
2019,07,20,14,12,22.50
2019,07,20,14,13,22.50
2019,07,20,14,14,22.50
2019,07,20,14,15,22.50
2019,07,20,14,16,22.50
2019,07,20,14,17,22.60
2019,07,20,14,18,22.60
2019,07,20,14,19,22.60
2019,07,20,14,20,22.60
2019,07,20,14,21,22.70
2019,07,20,14,22,22.80
2019,07,20,14,23,22.90
2019,07,20,14,24,23.00
2019,07,20,14,25,23.10
2019,07,20,14,26,23.10
2019,07,20,14,27,23.10
2019,07,20,14,28,23.10
2019,07,20,14,29,23.10
2019,07,20,14,30,23.10
2019,07,20,14,31,23.10
2019,07,20,14,32,23.10
2019,07,20,14,33,23.20
2019,07,20,14,34,23.20
2019,07,20,14,35,23.20
2019,07,20,14,36,23.20
2019,07,20,14,37,23.20
2019,07,20,14,38,23.20
2019,07,20,14,39,23.20
2019,07,20,14,40,23.20
2019,07,20,14,41,23.20
2019,07,20,14,42,23.30
2019,07,20,14,43,23.30
2019,07,20,14,44,23.40
2019,07,20,14,45,23.40
2019,07,20,14,46,23.50
2019,07,20,14,47,23.50
2019,07,20,14,48,23.60
2019,07,20,14,49,23.60
2019,07,20,14,50,23.60
2019,07,20,14,51,23.60
2019,07,20,14,52,23.50
2019,07,20,14,53,23.40
2019,07,20,14,54,23.30
2019,07,20,14,55,23.20
2019,07,20,14,56,23.10
2019,07,20,14,57,23.10
2019,07,20,14,58,23.10
2019,07,20,14,59,23.10
2019,07,20,15,00,23.10
2019,07,20,15,01,23.10
2019,07,20,15,02,23.10
2019,07,20,15,03,23.20
2019,07,20,15,04,23.20
2019,07,20,15,05,23.10
2019,07,20,15,06,23.10
2019,07,20,15,07,23.10
2019,07,20,15,08,23.10
2019,07,20,15,09,23.10
2019,07,20,15,10,23.10
2019,07,20,15,11,23.10
2019,07,20,15,12,23.10
2019,07,20,15,13,23.10
2019,07,20,15,14,23.10
2019,07,20,15,15,23.20
2019,07,20,15,16,23.20
2019,07,20,15,17,23.20
2019,07,20,15,18,23.30
2019,07,20,15,19,23.30
2019,07,20,15,20,23.30
2019,07,20,15,21,23.30
2019,07,20,15,22,23.30
2019,07,20,15,23,23.40
2019,07,20,15,24,23.40
2019,07,20,15,25,23.40
2019,07,20,15,26,23.50
2019,07,20,15,27,23.60
2019,07,20,15,28,23.60
2019,07,20,15,29,23.70
2019,07,20,15,30,23.70
2019,07,20,15,31,23.80
2019,07,20,15,32,23.90
2019,07,20,15,33,24.00
2019,07,20,15,34,24.10
2019,07,20,15,35,24.10
2019,07,20,15,36,24.00
2019,07,20,15,37,24.00
2019,07,20,15,38,24.00
2019,07,20,15,39,24.00
2019,07,20,15,40,24.10
2019,07,20,15,41,24.10
2019,07,20,15,42,24.00
2019,07,20,15,43,24.00
2019,07,20,15,44,24.10
2019,07,20,15,45,24.10
2019,07,20,15,46,24.20
2019,07,20,15,47,24.30
2019,07,20,15,48,24.40
2019,07,20,15,49,24.40
2019,07,20,15,50,24.40
2019,07,20,15,51,24.40
2019,07,20,15,52,24.50
2019,07,20,15,53,24.50
2019,07,20,15,54,24.60
2019,07,20,15,55,24.60
2019,07,20,15,56,24.60
2019,07,20,15,57,24.50
2019,07,20,15,58,24.50
2019,07,20,15,59,24.40
2019,07,20,16,00,24.30
2019,07,20,16,01,24.20
2019,07,20,16,02,24.20
2019,07,20,16,03,24.10
2019,07,20,16,04,24.00
2019,07,20,16,05,24.00
2019,07,20,16,06,24.00
2019,07,20,16,07,24.00
2019,07,20,16,08,24.00
2019,07,20,16,09,24.00
2019,07,20,16,10,24.10
2019,07,20,16,11,24.20
2019,07,20,16,12,24.20
2019,07,20,16,13,24.20
2019,07,20,16,14,24.20
2019,07,20,16,15,24.10
2019,07,20,16,16,24.10
2019,07,20,16,17,24.10
2019,07,20,16,18,24.10
2019,07,20,16,19,24.10
2019,07,20,16,20,24.10
2019,07,20,16,21,24.10
2019,07,20,16,22,24.10
2019,07,20,16,23,24.00
2019,07,20,16,24,24.00
2019,07,20,16,25,24.00
2019,07,20,16,26,24.00
2019,07,20,16,27,24.00
2019,07,20,16,28,24.00
2019,07,20,16,29,24.10
2019,07,20,16,30,24.10
2019,07,20,16,31,24.10
2019,07,20,16,32,24.10
2019,07,20,16,33,24.00
2019,07,20,16,34,23.90
2019,07,20,16,35,23.90
2019,07,20,16,36,23.90
2019,07,20,16,37,23.90
2019,07,20,16,38,24.00
2019,07,20,16,39,24.10
2019,07,20,16,40,24.10
2019,07,20,16,41,24.10
2019,07,20,16,42,24.10
2019,07,20,16,43,24.10
2019,07,20,16,44,24.10
2019,07,20,16,45,24.10
2019,07,20,16,46,24.10
2019,07,20,16,47,24.10
2019,07,20,16,48,24.00
2019,07,20,16,49,24.00
2019,07,20,16,50,23.90
2019,07,20,16,51,23.90
2019,07,20,16,52,23.80
2019,07,20,16,53,23.80
2019,07,20,16,54,23.70
2019,07,20,16,55,23.70
2019,07,20,16,56,23.70
2019,07,20,16,57,23.70
2019,07,20,16,58,23.70
2019,07,20,16,59,23.80
2019,07,20,17,00,23.80
2019,07,20,17,01,23.80
2019,07,20,17,02,23.90
2019,07,20,17,03,23.90
2019,07,20,17,04,24.00
2019,07,20,17,05,24.00
2019,07,20,17,06,24.10
2019,07,20,17,07,24.10
2019,07,20,17,08,24.10
2019,07,20,17,09,24.10
2019,07,20,17,10,24.10
2019,07,20,17,11,24.20
2019,07,20,17,12,24.20
2019,07,20,17,13,24.30
2019,07,20,17,14,24.30
2019,07,20,17,15,24.40
2019,07,20,17,16,24.40
2019,07,20,17,17,24.40
2019,07,20,17,18,24.30
2019,07,20,17,19,24.30
2019,07,20,17,20,24.20
2019,07,20,17,21,24.20
2019,07,20,17,22,24.20